Location: Ponte Samoggia
(44.5667°N, 11.1333°E)
Time: 21:57:34
(UTC+00:00)

Cosmos 407 Rocket - Pass Details

Date: 26 May 2022
Orbit: 743 x 786 km, 74.0° (Epoch: 29 June)

Event Time Altitude Azimuth Distance (km) Brightness Sun altitude
Rises 02:45:45 0° 336° (NNW) 3,280 7.0 -8.3°
Reaches altitude 10° 02:48:10 10° 333° (NNW) 2,343 6.2 -8.0°
Maximum altitude 02:53:25 61° 254° (WSW) 875 3.6 -7.3°
Drops below altitude 10° 02:58:34 10° 174° (S) 2,301 5.7 -6.5°
Sets 03:00:56 0° 171° (S) 3,216 6.4 -6.2°
